Weather in Sosua

Dominican Republic     19°46′25″N   70°29′52″W
temp.,
°C
wind,
m/s
gust,
m/s
humid.,
%
clouds,
%
prec.,
mm/h
press.,
hPa
HPBL,
m
13 june, sun
sun1323:00+24sse2386100 2.2 1016112
02:00+24sse248961 2.8 1015139
05:00+23sse23895 0.0 1015131
08:00+25sse348341 0.0 1017292
11:00+29e45627 0.0 1016903
14:00+29ene77685 0.0 1015883
17:00+27e68783 0.4 1014527
20:00+25ese698999 1.1 1015316
14 june, mon
mon1423:00+25se578923 0.3 1016298
02:00+24se469013 0.3 1015225
05:00+24se359255 0.0 1016210
08:00+26se478012 0.0 1017426
11:00+29e67655 0.0 1017983
14:00+29e99716 0.0 1016908
17:00+29e797279 0.1 1015801
20:00+26ese6984100 0.1 1016370
15 june, tue
tue1523:00+25ese478831 0.0 1018249
02:00+23se468625 0.0 1017204
05:00+23se368846 0.0 1017227
08:00+26ese46785 0.0 1018420
11:00+29e576437 0.0 1018884
14:00+30e8963100 0.0 10161222
17:00+29e8971100 0.0 1016762
20:00+26ese6983100 0.0 1017357
16 june, wed
wed1623:00+25ese478571 0.0 1018240
02:00+24se368691 0.0 1017214
05:00+24se479034 0.0 1017329
08:00+26se478121 0.0 1018644
11:00+30e68615 0.0 1017989
14:00+30e996413 0.0 10161034
17:00+28e810745 0.0 1015656
20:00+26ese6118338 0.0 1016462
17 june, thu
thu1723:00+25ese59895 0.0 1017390
02:00+24se478921 0.0 1016300
05:00+24se469031 0.0 1016284
08:00+26ese487894 0.0 1017605
11:00+29e786511 0.0 10171064
14:00+29e9107110 0.0 1015790
17:00+28e81176100 0.0 1014721
20:00+26ese71187100 0.0 1016644